Location: Aldenham
(51.6667°N, 0.3500°W)
Time: 18:33:16
(UTC+00:00)

Cosmos 2084 Rocket - Pass Details

Date: 18 November 2025
Orbit: 549 x 566 km, 62.8° (Epoch: 10 December)

Event Time Altitude Azimuth Distance (km) Brightness Sun altitude
Rises 16:32:57 0° 217° (SW) 2,733 8.2 -4.3°
Reaches altitude 10° 16:35:09 10° 215° (SW) 1,845 7.1 -4.6°
Maximum altitude 16:39:17 70° 133° (SE) 602 3.5 -5.2°
Drops below altitude 10° 16:43:29 10° 50° (NE) 1,867 5.4 -5.8°
Enters shadow 16:44:14 - 49° (NE) 2,172 5.7 -5.9°
